452  
NZUS01 KOTX 291125  
RWROTX  
 
EASTERN WASHINGTON/NORTHERN IDAHO ROUNDUP  
NATIONAL WEATHER SERVICE, SPOKANE WA  
400 AM PDT SAT JUL 29 2017  
 
NOTE: "FAIR" INDICATED FEW OR NO CLOUDS BELOW 12,000 FEET WITH NO  
SIGNIFICANT WEATHER AND/OR S TO VISIBILITY
.  
   
..NORTHEAST WASHINGTON AND NORTHERN IDAHO PANHANDLE
 
 
 
CITY SKY/WX TMP DP RH WIND PRES REMARKS
 
SPOKANE INTL PTCLDY 65 33 30 S6 30.02R  
SPOKANE DOWNTO CLEAR 59 42 53 NE5 30.01R  
COEUR D ALENE MOCLDY 64 51 62 S5 30.03R  
DEER PARK CLEAR 49 38 65 CALM 30.01R  
SANDPOINT CLEAR 52 43 71 CALM 30.02R  
BONNERS FERRY FAIR 61 41 48 E3 30.03R  
   
..SOUTHEAST WASHINGTON AND SOUTHERN IDAHO PANHANDLE
 
 
 
CITY SKY/WX TMP DP RH WIND PRES REMARKS
 
WALLA WALLA CLEAR 70 47 43 S7 29.99R  
PULLMAN/MOSCOW PTCLDY 57 44 62 CALM 30.06R  
LEWISTON CLEAR 71 44 37 CALM 29.99R  
LOWELL N/A 65 55 70 N5 30.04R  
GRANGEVILLE FAIR 57 52 82 S3 30.08S  
   
..COLUMBIA BASIN
 
 
 
CITY SKY/WX TMP DP RH WIND PRES REMARKS
 
EPHRATA CLEAR 70 36 28 N5 29.95R  
MOSES LAKE CLEAR 59 48 67 SE6 29.96R  
PASCO CLEAR 66 52 60 E5 29.96R  
RICHLAND SUNNY 64 53 67 CALM 29.96R  
HERMISTON CLEAR 70 47 43 VRB5 29.97R  
PENDLETON CLEAR 60 43 53 S3 30.01R  
   
..EAST SLOPES CASCADES
 
 
 
CITY SKY/WX TMP DP RH WIND PRES REMARKS
 
THE DALLES CLEAR 68 54 60 NW13 29.99R  
YAKIMA CLEAR 71 43 36 N13G23 29.99R  
ELLENSBURG CLEAR 65 44 46 NW20 30.01S  
STAMPEDE PASS CLEAR 50 47 89 SW7 30.16R  
WENATCHEE CLEAR 68 47 46 NW13 29.98S  
OMAK CLEAR 56 36 47 CALM 29.97R  
CHELAN N/A 66 43 42 MISG N/A  
SUNNYSIDE N/A 51 48 89 CALM 29.97R  
   
..SOUTHERN BRITISH COLUMBIA
 
 
 
CITY SKY/WX TMP DP RH WIND PRES REMARKS
 
PENTICTON CLEAR 59 39 47 N5 29.99R  
CRANBROOK PTCLDY 61 36 39 W6 30.04R  
OSOYOOS N/A 68 43 40 NE3 N/A  
CRESTON N/A 66 37 34 E5 N/A  
   
..WESTERN MONTANA
 
 
 
CITY SKY/WX TMP DP RH WIND PRES REMARKS
 
KALISPELL SUNNY 51 43 74 CALM 30.04R  
LIBBY N/A 52 43 71 CALM 30.03R  
MISSOULA PTCLDY 59 47 64 E6 30.10R  
   
..NEIGHBORING CITIES
 
 
 
CITY SKY/WX TMP DP RH WIND PRES REMARKS
 
SEATTLE CLEAR 57 51 80 CALM 30.12R  
PORTLAND CLEAR 58 50 75 NW5 30.12R  
BOISE CLEAR 71 42 35 E8 30.01R  
GREAT FALLS PTCLDY 66 41 40 SW10 30.06R  
CALGARY PTCLDY 54 48 82 VRB2 30.09R  
 
CLICK HERE TO GO TO PREVIOUS BULLETINS.

The Nexlab WA Page
The Nexlab ID Page Main Text Page